CW2640 Weather Reports


Display with metric or nautical units.
time (UTC)temp
F
wind
direction
speed
MPH
gust
MPH
rain 1hr
in
rain 24hr
in
rain mn
in
humidity
%
barometer
mb
20260506212147 75 83 0.0 0.0 0.00 0.00 0.00 90 1011.3
20260506205143 76 83 0.0 0.0 0.00 0.00 0.00 89 1011.3
20260506202138 78 83 0.0 0.0 0.00 0.00 0.00 87 1011.5
20260506195136 77 81 0.0 0.0 0.00 0.00 0.00 87 1012.0
20260506192136 75 82 0.0 0.0 0.00 0.00 0.00 92 1012.8
20260506185134 76 82 0.0 0.0 0.00 0.00 0.00 90 1013.2
20260506182133 76 83 0.0 0.0 0.00 0.00 0.00 89 1013.3
20260506175131 76 82 0.0 0.0 0.00 0.00 0.00 88 1013.1
20260506172126 76 82 0.0 0.0 0.00 0.00 0.00 85 1013.6
20260506165122 77 80 0.0 0.0 0.00 0.00 0.00 86 1013.4
20260506162117 75 80 0.0 0.0 0.00 0.00 0.00 86 1013.6
20260506155116 73 80 0.0 0.0 0.00 0.00 0.00 90 1013.8
20260506151445 72 80 0.0 0.0 0.00 0.00 0.00 90 1013.9
20260506144443 71 80 0.0 0.0 0.00 0.00 0.00 92 1013.7
20260506141441 71 80 0.0 0.0 0.00 0.00 0.00 92 1013.9
20260506134440 70 80 0.0 0.0 0.00 0.00 0.00 93 1013.9
20260506131439 68 80 0.0 0.0 0.00 0.00 0.00 95 1013.9
20260506124435 68 80 0.0 0.0 0.00 0.00 0.00 96 1013.8
20260506121431 68 80 0.0 0.0 0.00 0.00 0.00 96 1013.4
20260506114428 68 88 0.0 0.0 0.00 0.00 0.00 94 1012.9
20260506111425 68 101 0.0 0.0 0.00 0.00 0.00 92 1012.6
20260506104425 68 129 0.0 0.0 0.00 0.00 0.00 90 1012.4
20260506101425 69 147 0.0 0.0 0.00 0.00 0.00 89 1011.8
20260506094424 69 157 0.0 0.0 0.00 0.00 0.00 88 1011.8
20260506091420 69 152 0.0 0.0 0.00 0.00 0.00 87 1011.9
20260506084419 69 133 0.0 0.0 0.00 0.00 0.00 86 1011.4
20260506081419 69 139 0.0 0.0 0.00 0.00 0.00 84 1011.4
20260506071415 70 135 0.0 0.0 0.00 0.00 0.00 79 1011.1
20260506061408 71 135 0.0 0.0 0.00 0.00 0.00 77 1011.5
20260506051359 71 135 0.0 0.0 0.00 0.00 0.00 77 1012.0
20260506044354 71 136 0.0 0.0 0.00 0.00 0.00 76 1012.1
20260506041354 71 136 0.0 0.0 0.00 0.00 0.00 76 1011.8
20260506034351 70 136 0.0 0.0 0.00 0.00 0.00 78 1011.9
20260506031350 70 136 0.0 0.0 0.00 0.00 0.00 76 1011.6
20260506024350 70 136 0.0 0.0 0.00 0.00 0.00 77 1011.2
20260506021349 70 137 0.0 0.0 0.00 0.00 0.00 77 1011.4
20260506014349 71 136 0.0 0.0 0.00 0.00 0.00 77 1011.3
20260506011348 71 137 0.0 0.0 0.00 0.00 0.00 75 1011.4
20260506004348 72 137 0.0 0.0 0.00 0.00 0.00 75 1011.7
20260506001344 72 137 0.0 0.0 0.00 0.00 0.00 73 1011.4
20260505234340 73 137 0.0 0.0 0.00 0.00 0.00 72 1011.5
20260505231335 73 136 0.0 0.0 0.00 0.00 0.00 70 1012.1
20260505224335 74 132 0.0 0.0 0.00 0.00 0.00 69 1012.0
20260505221332 74 130 0.0 0.0 0.00 0.00 0.00 68 1012.3
20260505214328 74 119 0.0 0.0 0.00 0.00 0.00 68 1012.2